Home   Weather   Eberswalde   Past weeks

Flag for Germany Past Weather in Eberswalde, Brandenburg, Germany — Yesterday and Last 2 Weeks

52 °F


Feels Like: 49 °F
Forecast: 48 / 56 °F
Wind: 8 mph from West

Location: Berlin-Tegel

Current Time: Oct 27, 2016 at 5:09:00 PM

Latest Report: Oct 27, 2016 at 4:50 PM

Visibility: 2 mi

Pressure: 30.42 "Hg

Humidity: 94%

Dew Point: 50 °F

Location of EberswaldeLocation

Past Weather in Eberswalde — Graph


Eberswalde Temperature Yesterday

Maximum temperature yesterday: 48 °F (at 12:50 PM)
Minimum temperature yesterday: 39 °F (at 12:20 AM)
Average temperature yesterday: 44 °F

High & Low Weather Summary for the Past Weeks

High54 °F (Oct 14, 2:20 PM)100% (Oct 13, 1:50 AM)30.42 "Hg (Oct 13, 1:50 AM)
Low39 °F (Oct 14, 5:50 AM)58% (Oct 14, 2:20 PM)29.86 "Hg (Oct 15, 4:50 AM)
Average47 °F89%30.09 "Hg
* Reported Oct 12 3:20 PM — Oct 27 3:50 PM, Eberswalde, Weather by CustomWeather, © 2016

Note: Actual official high and low records may vary slightly from our data, if they occured in-between our weather recording intervals... More about our weather records


Eberswalde Weather History for the Previous 24 Hours

Scroll right to see more
Time TempWeatherWind HumidityBarometerVisibility
3:50 PM
Thu, Oct 27
52 °FFog.9 mph88%30.42 "Hg2 mi
3:20 PM52 °FFog.9 mph88%30.42 "Hg2 mi
2:50 PM52 °FFog.10 mph88%30.42 "Hg2 mi
2:20 PM50 °FFog.9 mph94%30.42 "Hg2 mi
1:50 PM50 °FFog.9 mph94%30.42 "Hg2 mi
1:20 PM50 °FFog.9 mph88%30.42 "Hg2 mi
12:50 PM50 °FFog.12 mph88%30.42 "Hg2 mi
12:20 PM50 °FFog.9 mph88%30.42 "Hg2 mi
11:50 AM48 °FFog.9 mph94%30.42 "Hg2 mi
11:20 AM48 °FLight rain. Fog.8 mph94%30.42 "Hg2 mi
10:50 AM48 °FLight rain. Fog.9 mph94%30.42 "Hg2 mi
10:20 AM48 °FFog.7 mph87%30.39 "Hg2 mi
9:50 AM46 °FOvercast.6 mph87%30.39 "Hg4 mi
9:20 AM46 °FPartly sunny.5 mph87%30.39 "Hg4 mi
8:50 AM45 °FPartly sunny.5 mph93%30.39 "Hg4 mi
8:20 AM45 °FFog.6 mph93%30.39 "Hg3 mi
7:50 AM43 °FFog.5 mph93%30.39 "Hg3 mi
7:20 AM43 °FFog.3 mph93%30.39 "Hg4 mi
6:50 AM41 °FFog.3 mph100%30.39 "Hg4 mi
6:20 AM41 °FFog.3 mph93%30.39 "Hg4 mi
5:50 AM41 °FFog.2 mph100%30.39 "Hg4 mi
5:20 AM41 °FFog.3 mph93%30.39 "Hg6 mi
4:50 AM43 °FFog.2 mph93%30.39 "Hg6 mi
4:20 AM43 °FPassing clouds.2 mph100%30.36 "Hg6 mi
3:50 AM45 °FPartly cloudy.2 mph93%30.39 "HgN/A
3:20 AM45 °FPassing clouds.3 mph93%30.39 "HgN/A
2:50 AM45 °FPassing clouds.3 mph93%30.39 "HgN/A
2:20 AM43 °FPartly cloudy.3 mph100%30.39 "HgN/A
1:50 AM45 °FPartly cloudy.3 mph93%30.39 "HgN/A
1:20 AM45 °FPassing clouds.3 mph93%30.39 "HgN/A
12:20 AM45 °FPassing clouds.5 mph93%30.39 "HgN/A
11:50 PM
Wed, Oct 26
45 °FPassing clouds.2 mph93%30.42 "HgN/A
11:20 PM45 °FPassing clouds.2 mph87%30.42 "HgN/A
10:50 PM45 °FMostly cloudy.2 mph87%30.42 "HgN/A
10:20 PM45 °FPassing clouds.5 mph87%30.42 "HgN/A
9:50 PM45 °FPassing clouds.2 mph87%30.42 "HgN/A
9:20 PM45 °FPartly cloudy.6 mph87%30.39 "HgN/A
8:50 PM45 °FPartly cloudy.6 mph87%30.39 "HgN/A
8:20 PM46 °FPassing clouds.5 mph82%30.39 "HgN/A
7:50 PM46 °FPassing clouds.5 mph82%30.39 "HgN/A
7:20 PM45 °FPassing clouds.2 mph87%30.39 "HgN/A
6:50 PM46 °FPassing clouds.5 mph87%30.39 "HgN/A
6:20 PM46 °FPartly cloudy.5 mph87%30.39 "HgN/A
5:50 PM46 °FPassing clouds.6 mph87%30.39 "HgN/A
5:20 PM46 °FBroken clouds.6 mph87%30.39 "HgN/A
Weather by CustomWeather, © 2016

See weather overviewHow to use our weather pages